| time (UTC) | temp F | wind direction | speed MPH | gust MPH | rain 1hr in | rain 24hr in | rain mn in | humidity % | barometer mb |
| 20260901233959 | 64 | 236 | 0.0 | 4.0 | 0.00 | 0.00 | 0.00 | 69 | 995.3 |
| 20260901233500 | 65 | 231 | 0.0 | 2.0 | 0.00 | 0.00 | 0.00 | 69 | 995.3 |
| 20260901232959 | 65 | 231 | 0.0 | 3.0 | 0.00 | 0.00 | 0.00 | 69 | 995.3 |
| 20260901232500 | 65 | 248 | 1.0 | 3.0 | 0.00 | 0.00 | 0.00 | 68 | 995.3 |
| 20260901232000 | 65 | 238 | 0.0 | 4.0 | 0.00 | 0.00 | 0.00 | 68 | 995.4 |
| 20260901231459 | 65 | 233 | 0.0 | 4.0 | 0.00 | 0.00 | 0.00 | 68 | 995.4 |
| 20260901231000 | 65 | 260 | 0.0 | 4.0 | 0.00 | 0.00 | 0.00 | 69 | 995.4 |
| 20260901230501 | 65 | 275 | 3.0 | 3.0 | 0.00 | 0.00 | 0.00 | 70 | 995.3 |
| 20260901225501 | 65 | 221 | 0.0 | 4.0 | 0.00 | 0.00 | 0.00 | 69 | 995.4 |
| 20260901225000 | 65 | 246 | 0.0 | 4.0 | 0.00 | 0.00 | 0.00 | 70 | 995.5 |
| 20260901224500 | 65 | 249 | 0.0 | 4.0 | 0.00 | 0.00 | 0.00 | 69 | 995.5 |
| 20260901224002 | 65 | 235 | 0.0 | 4.0 | 0.00 | 0.00 | 0.00 | 69 | 995.4 |
| 20260901223500 | 65 | 237 | 0.0 | 4.0 | 0.00 | 0.00 | 0.00 | 69 | 995.5 |
| 20260901223000 | 65 | 267 | 3.0 | 4.0 | 0.00 | 0.00 | 0.00 | 70 | 995.4 |
| 20260901221500 | 67 | 233 | 0.0 | 4.0 | 0.00 | 0.00 | 0.00 | 67 | 995.5 |
| 20260901220500 | 66 | 250 | 2.0 | 4.0 | 0.00 | 0.00 | 0.00 | 70 | 995.4 |
| 20260901220002 | 65 | 204 | 0.0 | 4.0 | 0.00 | 0.00 | 0.00 | 70 | 995.4 |
| 20260901215459 | 65 | 269 | 0.0 | 5.0 | 0.00 | 0.00 | 0.00 | 71 | 995.4 |
| 20260901215000 | 65 | 269 | 0.0 | 5.0 | 0.00 | 0.00 | 0.00 | 69 | 995.5 |
| 20260901214459 | 66 | 237 | 0.0 | 4.0 | 0.00 | 0.00 | 0.00 | 70 | 995.3 |
| 20260901214000 | 66 | 229 | 2.0 | 10.0 | 0.00 | 0.00 | 0.00 | 69 | 995.2 |
| 20260901213500 | 66 | 236 | 10.0 | 10.0 | 0.00 | 0.00 | 0.00 | 69 | 995.3 |
| 20260901213000 | 65 | 270 | 0.0 | 5.0 | 0.00 | 0.00 | 0.00 | 70 | 995.3 |
| 20260901212500 | 65 | 227 | 0.0 | 6.0 | 0.00 | 0.00 | 0.00 | 68 | 995.2 |
| 20260901212000 | 66 | 225 | 2.0 | 6.0 | 0.00 | 0.00 | 0.00 | 69 | 995.1 |
| 20260901211500 | 65 | 233 | 0.0 | 6.0 | 0.00 | 0.00 | 0.00 | 69 | 995.1 |
| 20260901210958 | 65 | 227 | 0.0 | 3.0 | 0.00 | 0.00 | 0.00 | 69 | 995.1 |
| 20260901210002 | 65 | 231 | 2.0 | 5.0 | 0.00 | 0.00 | 0.00 | 69 | 995.2 |
| 20260901205000 | 65 | 250 | 0.0 | 6.0 | 0.00 | 0.00 | 0.00 | 69 | 995.2 |
| 20260901204459 | 65 | 227 | 0.0 | 6.0 | 0.00 | 0.00 | 0.00 | 68 | 995.2 |
| 20260901204002 | 65 | 323 | 1.0 | 5.0 | 0.00 | 0.00 | 0.00 | 69 | 995.2 |
| 20260901203501 | 65 | 262 | 0.0 | 6.0 | 0.00 | 0.00 | 0.00 | 68 | 995.2 |
| 20260901203002 | 66 | 209 | 0.0 | 6.0 | 0.00 | 0.00 | 0.00 | 66 | 995.2 |
| 20260901202500 | 66 | 204 | 2.0 | 6.0 | 0.00 | 0.00 | 0.00 | 67 | 995.1 |
| 20260901202002 | 66 | 218 | 0.0 | 6.0 | 0.00 | 0.00 | 0.00 | 67 | 995.2 |
| 20260901201501 | 66 | 211 | 0.0 | 6.0 | 0.00 | 0.00 | 0.00 | 66 | 995.2 |
| 20260901201001 | 66 | 240 | 1.0 | 6.0 | 0.00 | 0.00 | 0.00 | 66 | 995.2 |
| 20260901200500 | 67 | 238 | 1.0 | 7.0 | 0.00 | 0.00 | 0.00 | 64 | 995.2 |
| 20260901195959 | 66 | 248 | 0.0 | 7.0 | 0.00 | 0.00 | 0.00 | 67 | 995.3 |
| 20260901195501 | 67 | 240 | 0.0 | 4.0 | 0.00 | 0.00 | 0.00 | 64 | 995.3 |
| 20260901194459 | 65 | 211 | 4.0 | 4.0 | 0.00 | 0.00 | 0.00 | 67 | 995.5 |
| 20260901194000 | 65 | 217 | 3.0 | 4.0 | 0.00 | 0.00 | 0.00 | 67 | 995.4 |
| 20260901193500 | 65 | 248 | 1.0 | 3.0 | 0.00 | 0.00 | 0.00 | 67 | 995.6 |
| 20260901192959 | 65 | 250 | 0.0 | 3.0 | 0.00 | 0.00 | 0.00 | 68 | 995.6 |
| 20260901192500 | 65 | 249 | 0.0 | 3.0 | 0.00 | 0.00 | 0.00 | 67 | 995.7 |
| 20260901192000 | 65 | 217 | 0.0 | 3.0 | 0.00 | 0.00 | 0.00 | 68 | 995.8 |
| 20260901191001 | 63 | 231 | 0.0 | 4.0 | 0.00 | 0.00 | 0.00 | 70 | 995.9 |
| 20260901190501 | 63 | 212 | 3.0 | 4.0 | 0.00 | 0.00 | 0.00 | 69 | 995.9 |
| 20260901190001 | 63 | 236 | 0.0 | 3.0 | 0.00 | 0.00 | 0.00 | 71 | 996.0 |
| 20260901185501 | 63 | 237 | 0.0 | 3.0 | 0.00 | 0.00 | 0.00 | 70 | 996.1 |
| 20260901184959 | 63 | 244 | 1.0 | 3.0 | 0.00 | 0.00 | 0.00 | 71 | 996.1 |
| 20260901183959 | 63 | 238 | 5.0 | 5.0 | 0.00 | 0.00 | 0.00 | 71 | 996.3 |
| 20260901183500 | 63 | 289 | 1.0 | 4.0 | 0.00 | 0.00 | 0.00 | 71 | 996.4 |
| 20260901183000 | 62 | 250 | 2.0 | 4.0 | 0.00 | 0.00 | 0.00 | 71 | 996.4 |
| 20260901182501 | 62 | 240 | 0.0 | 4.0 | 0.00 | 0.00 | 0.00 | 72 | 996.3 |
| 20260901182000 | 62 | 239 | 0.0 | 4.0 | 0.00 | 0.00 | 0.00 | 73 | 996.4 |
| 20260901181000 | 62 | 248 | 0.0 | 5.0 | 0.00 | 0.00 | 0.00 | 74 | 996.3 |
| 20260901180500 | 61 | 291 | 2.0 | 5.0 | 0.00 | 0.00 | 0.00 | 74 | 996.4 |
| 20260901175000 | 61 | 271 | 0.0 | 3.0 | 0.00 | 0.00 | 0.00 | 75 | 996.4 |
| 20260901174500 | 60 | 295 | 0.0 | 3.0 | 0.00 | 0.00 | 0.00 | 75 | 996.4 |
| 20260901174000 | 60 | 234 | 0.0 | 3.0 | 0.00 | 0.00 | 0.00 | 75 | 996.5 |
| 20260901173507 | 60 | 237 | 1.0 | 2.0 | 0.00 | 0.00 | 0.00 | 76 | 996.5 |
| 20260901173001 | 60 | 237 | 0.0 | 1.0 | 0.00 | 0.00 | 0.00 | 76 | 996.6 |
| 20260901172504 | 59 | 237 | 0.0 | 2.0 | 0.00 | 0.00 | 0.00 | 76 | 996.6 |
| 20260901172001 | 59 | 236 | 0.0 | 1.0 | 0.00 | 0.00 | 0.00 | 76 | 996.5 |
| 20260901165000 | 57 | 234 | 0.0 | 0.0 | 0.00 | 0.00 | 0.00 | 75 | 996.4 |
| 20260901164501 | 57 | 234 | 0.0 | 0.0 | 0.00 | 0.00 | 0.00 | 75 | 996.5 |
| 20260901163502 | 57 | 235 | 0.0 | 2.0 | 0.00 | 0.00 | 0.00 | 75 | 996.5 |
| 20260901163001 | 56 | 236 | 0.0 | 1.0 | 0.00 | 0.00 | 0.00 | 74 | 996.4 |
| 20260901162002 | 56 | 244 | 0.0 | 4.0 | 0.00 | 0.00 | 0.00 | 73 | 996.4 |
| 20260901161500 | 56 | 248 | 0.0 | 0.0 | 0.00 | 0.00 | 0.00 | 72 | 996.4 |
| 20260901161001 | 56 | 247 | 0.0 | 2.0 | 0.00 | 0.00 | 0.00 | 72 | 996.4 |
| 20260901160004 | 55 | 247 | 0.0 | 2.0 | 0.00 | 0.00 | 0.00 | 71 | 996.3 |
| 20260901155501 | 55 | 247 | 0.0 | 2.0 | 0.00 | 0.00 | 0.00 | 70 | 996.3 |
| 20260901154504 | 55 | 247 | 0.0 | 1.0 | 0.00 | 0.00 | 0.00 | 69 | 996.3 |
| 20260901154000 | 55 | 247 | 0.0 | 0.0 | 0.00 | 0.00 | 0.00 | 69 | 996.3 |
| 20260901153500 | 55 | 247 | 0.0 | 0.0 | 0.00 | 0.00 | 0.00 | 69 | 996.3 |
| 20260901153001 | 55 | 247 | 0.0 | 0.0 | 0.00 | 0.00 | 0.00 | 69 | 996.3 |
| 20260901152501 | 55 | 247 | 0.0 | 0.0 | 0.00 | 0.00 | 0.00 | 69 | 996.3 |
| 20260901150501 | 55 | 247 | 0.0 | 0.0 | 0.00 | 0.00 | 0.00 | 69 | 996.2 |
| 20260901150001 | 55 | 247 | 0.0 | 0.0 | 0.00 | 0.00 | 0.00 | 69 | 996.1 |
| 20260901145500 | 55 | 247 | 0.0 | 0.0 | 0.00 | 0.00 | 0.00 | 69 | 996.1 |
| 20260901145001 | 55 | 247 | 0.0 | 0.0 | 0.00 | 0.00 | 0.00 | 69 | 996.0 |
| 20260901144459 | 55 | 247 | 0.0 | 0.0 | 0.00 | 0.00 | 0.00 | 69 | 996.0 |
| 20260901144001 | 55 | 247 | 0.0 | 0.0 | 0.00 | 0.00 | 0.00 | 69 | 996.0 |
| 20260901143500 | 55 | 247 | 0.0 | 0.0 | 0.00 | 0.00 | 0.00 | 69 | 996.1 |
| 20260901143000 | 55 | 247 | 0.0 | 0.0 | 0.00 | 0.00 | 0.00 | 69 | 996.0 |
| 20260901142500 | 55 | 247 | 0.0 | 0.0 | 0.00 | 0.00 | 0.00 | 69 | 996.1 |
| 20260901142000 | 55 | 247 | 0.0 | 0.0 | 0.00 | 0.00 | 0.00 | 70 | 996.1 |
| 20260901141501 | 55 | 247 | 0.0 | 0.0 | 0.00 | 0.00 | 0.00 | 70 | 996.1 |
| 20260901141001 | 55 | 247 | 0.0 | 0.0 | 0.00 | 0.00 | 0.00 | 70 | 996.1 |
| 20260901140000 | 55 | 247 | 0.0 | 0.0 | 0.00 | 0.00 | 0.00 | 70 | 996.0 |
| 20260901135502 | 55 | 247 | 0.0 | 1.0 | 0.00 | 0.00 | 0.00 | 70 | 996.0 |
| 20260901135000 | 55 | 247 | 0.0 | 2.0 | 0.00 | 0.00 | 0.00 | 71 | 995.9 |
| 20260901134500 | 55 | 246 | 0.0 | 2.0 | 0.00 | 0.00 | 0.00 | 71 | 995.8 |
| 20260901134000 | 55 | 239 | 0.0 | 1.0 | 0.00 | 0.00 | 0.00 | 71 | 995.8 |
| 20260901133001 | 55 | 240 | 0.0 | 0.0 | 0.00 | 0.00 | 0.00 | 71 | 995.8 |
| 20260901132459 | 55 | 240 | 0.0 | 0.0 | 0.00 | 0.00 | 0.00 | 71 | 995.7 |
| 20260901131959 | 55 | 239 | 0.0 | 0.0 | 0.00 | 0.00 | 0.00 | 70 | 995.7 |
| 20260901131459 | 55 | 239 | 0.0 | 2.0 | 0.00 | 0.00 | 0.00 | 70 | 995.7 |
| 20260901131000 | 55 | 240 | 0.0 | 2.0 | 0.00 | 0.00 | 0.00 | 70 | 995.6 |
| 20260901125959 | 54 | 244 | 0.0 | 1.0 | 0.00 | 0.00 | 0.00 | 69 | 995.6 |
| 20260901125459 | 54 | 245 | 0.0 | 1.0 | 0.00 | 0.00 | 0.00 | 69 | 995.6 |
| 20260901125001 | 54 | 245 | 0.0 | 1.0 | 0.00 | 0.00 | 0.00 | 68 | 995.6 |
| 20260901124501 | 54 | 245 | 0.0 | 0.0 | 0.00 | 0.00 | 0.00 | 68 | 995.6 |
| 20260901124000 | 54 | 245 | 0.0 | 0.0 | 0.00 | 0.00 | 0.00 | 67 | 995.6 |
| 20260901123459 | 53 | 245 | 0.0 | 2.0 | 0.00 | 0.00 | 0.00 | 67 | 995.5 |
| 20260901122500 | 53 | 248 | 0.0 | 2.0 | 0.00 | 0.00 | 0.00 | 66 | 995.6 |
| 20260901122000 | 52 | 243 | 0.0 | 1.0 | 0.00 | 0.00 | 0.00 | 66 | 995.6 |
| 20260901121500 | 52 | 243 | 0.0 | 2.0 | 0.00 | 0.00 | 0.00 | 66 | 995.5 |
| 20260901120459 | 52 | 206 | 0.0 | 3.0 | 0.00 | 0.00 | 0.00 | 68 | 995.4 |
| 20260901120003 | 52 | 254 | 0.0 | 2.0 | 0.00 | 0.00 | 0.00 | 69 | 995.3 |
| 20260901115459 | 52 | 254 | 0.0 | 0.0 | 0.00 | 0.00 | 0.00 | 71 | 995.3 |
| 20260901114959 | 52 | 254 | 0.0 | 0.0 | 0.00 | 0.00 | 0.00 | 73 | 995.2 |
| 20260901114459 | 52 | 254 | 0.0 | 0.0 | 0.00 | 0.00 | 0.00 | 74 | 995.2 |
| 20260901113959 | 52 | 254 | 0.0 | 0.0 | 0.00 | 0.00 | 0.00 | 74 | 995.3 |
| 20260901113500 | 52 | 254 | 0.0 | 0.0 | 0.00 | 0.00 | 0.00 | 74 | 995.3 |
| 20260901113001 | 52 | 254 | 0.0 | 0.0 | 0.00 | 0.00 | 0.00 | 75 | 995.3 |
| 20260901112502 | 52 | 254 | 0.0 | 0.0 | 0.00 | 0.00 | 0.00 | 75 | 995.3 |
| 20260901111458 | 53 | 254 | 0.0 | 0.0 | 0.00 | 0.00 | 0.00 | 75 | 995.2 |
| 20260901111003 | 53 | 254 | 0.0 | 0.0 | 0.00 | 0.00 | 0.00 | 75 | 995.1 |
| 20260901110002 | 53 | 254 | 0.0 | 0.0 | 0.00 | 0.00 | 0.00 | 75 | 995.1 |
| 20260901105459 | 53 | 254 | 0.0 | 0.0 | 0.00 | 0.00 | 0.00 | 75 | 995.2 |
| 20260901104959 | 53 | 254 | 0.0 | 0.0 | 0.00 | 0.00 | 0.00 | 75 | 995.2 |
| 20260901104459 | 53 | 254 | 0.0 | 0.0 | 0.00 | 0.00 | 0.00 | 75 | 995.1 |
| 20260901103959 | 54 | 254 | 0.0 | 0.0 | 0.00 | 0.00 | 0.00 | 75 | 995.2 |
| 20260901103459 | 54 | 254 | 0.0 | 0.0 | 0.00 | 0.00 | 0.00 | 75 | 995.2 |
| 20260901103000 | 54 | 254 | 0.0 | 0.0 | 0.00 | 0.00 | 0.00 | 76 | 995.2 |
| 20260901102500 | 54 | 254 | 0.0 | 0.0 | 0.00 | 0.00 | 0.00 | 75 | 995.2 |
| 20260901101500 | 54 | 254 | 0.0 | 0.0 | 0.00 | 0.00 | 0.00 | 75 | 995.1 |
| 20260901100000 | 54 | 254 | 0.0 | 0.0 | 0.00 | 0.00 | 0.00 | 75 | 995.1 |
| 20260901095459 | 54 | 254 | 0.0 | 0.0 | 0.00 | 0.00 | 0.00 | 75 | 995.1 |
| 20260901095000 | 54 | 254 | 0.0 | 0.0 | 0.00 | 0.00 | 0.00 | 76 | 995.1 |
| 20260901094459 | 54 | 254 | 0.0 | 0.0 | 0.00 | 0.00 | 0.00 | 76 | 995.1 |
| 20260901093959 | 55 | 254 | 0.0 | 0.0 | 0.00 | 0.00 | 0.00 | 76 | 995.0 |
| 20260901093501 | 55 | 254 | 0.0 | 0.0 | 0.00 | 0.00 | 0.00 | 76 | 994.9 |
| 20260901093002 | 55 | 254 | 0.0 | 0.0 | 0.00 | 0.00 | 0.00 | 76 | 995.0 |
| 20260901092500 | 55 | 254 | 0.0 | 0.0 | 0.00 | 0.00 | 0.00 | 76 | 995.1 |
| 20260901091959 | 55 | 254 | 0.0 | 0.0 | 0.00 | 0.00 | 0.00 | 76 | 995.0 |
| 20260901091459 | 55 | 254 | 0.0 | 0.0 | 0.00 | 0.00 | 0.00 | 76 | 995.0 |
| 20260901090959 | 55 | 254 | 0.0 | 0.0 | 0.00 | 0.00 | 0.00 | 76 | 995.0 |
| 20260901090500 | 55 | 254 | 0.0 | 0.0 | 0.00 | 0.00 | 0.00 | 76 | 995.0 |
| 20260901090002 | 55 | 254 | 0.0 | 0.0 | 0.00 | 0.00 | 0.00 | 76 | 995.0 |
| 20260901084959 | 55 | 254 | 0.0 | 0.0 | 0.00 | 0.00 | 0.00 | 76 | 995.0 |
| 20260901083959 | 55 | 254 | 0.0 | 0.0 | 0.00 | 0.00 | 0.00 | 76 | 994.7 |
| 20260901083500 | 56 | 254 | 0.0 | 0.0 | 0.00 | 0.00 | 0.00 | 76 | 994.7 |
| 20260901082959 | 56 | 254 | 0.0 | 0.0 | 0.00 | 0.00 | 0.00 | 76 | 994.7 |
| 20260901082501 | 56 | 254 | 0.0 | 0.0 | 0.00 | 0.00 | 0.00 | 76 | 994.7 |
| 20260901082000 | 56 | 254 | 0.0 | 0.0 | 0.00 | 0.00 | 0.00 | 76 | 994.8 |
| 20260901081459 | 56 | 254 | 0.0 | 0.0 | 0.00 | 0.00 | 0.00 | 76 | 994.8 |
| 20260901081002 | 56 | 254 | 0.0 | 0.0 | 0.00 | 0.00 | 0.00 | 76 | 994.8 |
| 20260901080002 | 56 | 254 | 0.0 | 0.0 | 0.00 | 0.00 | 0.00 | 76 | 994.7 |
| 20260901075501 | 56 | 254 | 0.0 | 0.0 | 0.00 | 0.00 | 0.00 | 76 | 994.7 |
| 20260901074959 | 56 | 254 | 0.0 | 0.0 | 0.00 | 0.00 | 0.00 | 76 | 994.6 |
| 20260901074459 | 57 | 254 | 0.0 | 0.0 | 0.00 | 0.00 | 0.00 | 76 | 994.5 |
| 20260901074000 | 57 | 254 | 0.0 | 0.0 | 0.00 | 0.00 | 0.00 | 76 | 994.6 |
| 20260901073459 | 57 | 254 | 0.0 | 0.0 | 0.00 | 0.00 | 0.00 | 76 | 994.5 |
| 20260901073000 | 57 | 254 | 0.0 | 0.0 | 0.00 | 0.00 | 0.00 | 76 | 994.6 |
| 20260901072500 | 57 | 254 | 0.0 | 0.0 | 0.00 | 0.00 | 0.00 | 76 | 994.5 |
| 20260901072000 | 57 | 254 | 0.0 | 0.0 | 0.00 | 0.00 | 0.00 | 76 | 994.4 |
| 20260901071500 | 58 | 254 | 0.0 | 0.0 | 0.00 | 0.00 | 0.00 | 76 | 994.3 |
| 20260901070959 | 58 | 254 | 0.0 | 0.0 | 0.00 | 0.00 | 0.00 | 76 | 994.3 |
| 20260901070459 | 58 | 254 | 0.0 | 0.0 | 0.00 | 0.00 | 0.00 | 76 | 994.2 |
| 20260901070000 | 58 | 254 | 0.0 | 0.0 | 0.00 | 0.00 | 0.00 | 75 | 994.2 |
| 20260901065500 | 58 | 254 | 0.0 | 0.0 | 0.00 | 0.00 | 0.00 | 75 | 994.2 |
| 20260901064959 | 59 | 254 | 0.0 | 0.0 | 0.00 | 0.00 | 0.00 | 75 | 994.2 |
| 20260901064459 | 59 | 254 | 0.0 | 0.0 | 0.00 | 0.00 | 0.00 | 75 | 994.1 |
| 20260901064002 | 59 | 254 | 0.0 | 0.0 | 0.00 | 0.00 | 0.00 | 75 | 994.1 |
| 20260901063504 | 59 | 254 | 0.0 | 0.0 | 0.00 | 0.00 | 0.00 | 75 | 994.0 |
| 20260901063000 | 60 | 254 | 0.0 | 0.0 | 0.00 | 0.00 | 0.00 | 75 | 994.0 |
| 20260901062459 | 60 | 254 | 0.0 | 0.0 | 0.00 | 0.00 | 0.00 | 74 | 993.9 |
| 20260901062003 | 60 | 254 | 0.0 | 0.0 | 0.00 | 0.00 | 0.00 | 74 | 993.9 |
| 20260901061001 | 61 | 254 | 0.0 | 0.0 | 0.00 | 0.00 | 0.00 | 73 | 993.8 |
| 20260901060501 | 61 | 254 | 0.0 | 0.0 | 0.00 | 0.00 | 0.00 | 73 | 993.7 |
| 20260901055500 | 61 | 254 | 0.0 | 0.0 | 0.00 | 0.00 | 0.00 | 73 | 993.7 |
| 20260901054958 | 62 | 254 | 0.0 | 0.0 | 0.00 | 0.00 | 0.00 | 72 | 993.7 |
| 20260901054001 | 62 | 254 | 0.0 | 0.0 | 0.00 | 0.00 | 0.00 | 72 | 993.8 |
| 20260901053500 | 62 | 254 | 0.0 | 0.0 | 0.00 | 0.00 | 0.00 | 71 | 993.8 |
| 20260901052500 | 63 | 254 | 0.0 | 0.0 | 0.00 | 0.00 | 0.00 | 71 | 993.7 |
| 20260901052001 | 63 | 254 | 0.0 | 0.0 | 0.00 | 0.00 | 0.00 | 70 | 993.7 |
| 20260901051501 | 64 | 254 | 0.0 | 0.0 | 0.00 | 0.00 | 0.00 | 69 | 993.6 |
| 20260901050959 | 64 | 254 | 0.0 | 0.0 | 0.00 | 0.00 | 0.00 | 69 | 993.7 |
| 20260901050500 | 64 | 254 | 0.0 | 0.0 | 0.00 | 0.00 | 0.00 | 69 | 993.6 |
| 20260901050004 | 65 | 254 | 0.0 | 0.0 | 0.00 | 0.00 | 0.00 | 69 | 993.6 |
| 20260901045503 | 65 | 254 | 0.0 | 0.0 | 0.00 | 0.00 | 0.00 | 67 | 993.6 |
| 20260901045001 | 65 | 254 | 0.0 | 0.0 | 0.00 | 0.00 | 0.00 | 67 | 993.6 |
| 20260901044500 | 66 | 254 | 0.0 | 0.0 | 0.00 | 0.00 | 0.00 | 66 | 993.6 |
| 20260901044000 | 66 | 254 | 0.0 | 0.0 | 0.00 | 0.00 | 0.00 | 66 | 993.6 |
| 20260901043500 | 67 | 254 | 0.0 | 0.0 | 0.00 | 0.00 | 0.00 | 65 | 993.5 |
| 20260901043000 | 67 | 254 | 0.0 | 0.0 | 0.00 | 0.00 | 0.00 | 64 | 993.5 |
| 20260901042001 | 68 | 254 | 0.0 | 0.0 | 0.00 | 0.00 | 0.00 | 64 | 993.3 |
| 20260901041500 | 68 | 254 | 0.0 | 0.0 | 0.00 | 0.00 | 0.00 | 63 | 993.3 |
| 20260901040959 | 69 | 254 | 0.0 | 0.0 | 0.00 | 0.00 | 0.00 | 62 | 993.2 |
| 20260901040458 | 69 | 254 | 0.0 | 0.0 | 0.00 | 0.00 | 0.00 | 61 | 993.1 |
| 20260901035959 | 69 | 254 | 0.0 | 0.0 | 0.00 | 0.00 | 0.00 | 61 | 993.1 |
| 20260901035501 | 70 | 254 | 0.0 | 0.0 | 0.00 | 0.00 | 0.00 | 60 | 993.0 |
| 20260901035000 | 70 | 254 | 0.0 | 0.0 | 0.00 | 0.00 | 0.00 | 59 | 992.9 |
| 20260901034500 | 71 | 254 | 0.0 | 0.0 | 0.00 | 0.00 | 0.00 | 59 | 992.9 |
| 20260901032959 | 73 | 254 | 0.0 | 0.0 | 0.00 | 0.00 | 0.00 | 56 | 992.7 |
| 20260901032459 | 73 | 254 | 0.0 | 0.0 | 0.00 | 0.00 | 0.00 | 55 | 992.7 |
| 20260901031459 | 74 | 254 | 0.0 | 0.0 | 0.00 | 0.00 | 0.00 | 54 | 992.5 |
| 20260901031001 | 74 | 254 | 0.0 | 0.0 | 0.00 | 0.00 | 0.00 | 53 | 992.5 |
| 20260901030002 | 75 | 254 | 0.0 | 0.0 | 0.00 | 0.00 | 0.00 | 52 | 992.4 |
| 20260901025501 | 76 | 254 | 0.0 | 0.0 | 0.00 | 0.00 | 0.00 | 52 | 992.4 |
| 20260901025004 | 76 | 254 | 0.0 | 0.0 | 0.00 | 0.00 | 0.00 | 52 | 992.4 |
| 20260901024459 | 76 | 254 | 0.0 | 0.0 | 0.00 | 0.00 | 0.00 | 52 | 992.3 |
| 20260901024000 | 77 | 254 | 0.0 | 0.0 | 0.00 | 0.00 | 0.00 | 52 | 992.3 |
| 20260901023501 | 77 | 254 | 0.0 | 0.0 | 0.00 | 0.00 | 0.00 | 51 | 992.2 |
| 20260901023001 | 77 | 254 | 0.0 | 0.0 | 0.00 | 0.00 | 0.00 | 50 | 992.2 |
| 20260901022459 | 77 | 254 | 0.0 | 0.0 | 0.00 | 0.00 | 0.00 | 49 | 992.1 |
| 20260901022001 | 77 | 254 | 0.0 | 0.0 | 0.00 | 0.00 | 0.00 | 48 | 992.2 |
| 20260901021001 | 78 | 254 | 0.0 | 1.0 | 0.00 | 0.00 | 0.00 | 46 | 992.1 |
| 20260901020501 | 78 | 254 | 0.0 | 1.0 | 0.00 | 0.00 | 0.00 | 47 | 992.1 |
| 20260901020002 | 78 | 254 | 0.0 | 2.0 | 0.00 | 0.00 | 0.00 | 46 | 992.2 |
| 20260901015501 | 78 | 254 | 0.0 | 0.0 | 0.00 | 0.00 | 0.00 | 46 | 992.1 |
| 20260901014001 | 79 | 266 | 0.0 | 2.0 | 0.00 | 0.00 | 0.00 | 45 | 992.1 |
| 20260901013500 | 79 | 266 | 0.0 | 1.0 | 0.00 | 0.00 | 0.00 | 44 | 992.1 |
| 20260901013000 | 79 | 266 | 0.0 | 0.0 | 0.00 | 0.00 | 0.00 | 43 | 992.1 |
| 20260901012500 | 79 | 266 | 0.0 | 0.0 | 0.00 | 0.00 | 0.00 | 42 | 992.1 |
| 20260901012000 | 79 | 266 | 0.0 | 1.0 | 0.00 | 0.00 | 0.00 | 42 | 992.0 |
| 20260901011502 | 79 | 266 | 0.0 | 3.0 | 0.00 | 0.00 | 0.00 | 41 | 992.0 |
| 20260901011002 | 79 | 266 | 0.0 | 3.0 | 0.00 | 0.00 | 0.00 | 39 | 992.0 |
| 20260901010501 | 79 | 272 | 0.0 | 0.0 | 0.00 | 0.00 | 0.00 | 40 | 992.0 |
| 20260901010000 | 79 | 273 | 0.0 | 0.0 | 0.00 | 0.00 | 0.00 | 40 | 992.0 |
| 20260901005459 | 79 | 273 | 0.0 | 1.0 | 0.00 | 0.00 | 0.00 | 39 | 991.9 |
| 20260901005000 | 0 | 0.0 | 0.0 | 0.00 | 0.00 | 0.00 | 991.9 | ||
| 20260901004002 | 0 | 0.0 | 0.0 | 0.00 | 0.00 | 0.00 | 991.9 | ||
| 20260901003459 | 81 | 294 | 0.0 | 5.0 | 0.00 | 0.00 | 0.00 | 35 | 992.0 |
| 20260901003001 | 81 | 294 | 0.0 | 5.0 | 0.00 | 0.00 | 0.00 | 35 | 992.0 |
| 20260901002501 | 81 | 294 | 0.0 | 5.0 | 0.00 | 0.00 | 0.00 | 35 | 991.9 |
| 20260901002001 | 81 | 236 | 0.0 | 6.0 | 0.00 | 0.00 | 0.00 | 35 | 991.9 |
| 20260901001501 | 81 | 282 | 0.0 | 6.0 | 0.00 | 0.00 | 0.00 | 35 | 991.9 |
| 20260901001001 | 82 | 263 | 0.0 | 7.0 | 0.00 | 0.00 | 0.00 | 34 | 991.9 |
| 20260901000500 | 82 | 233 | 0.0 | 7.0 | 0.00 | 0.00 | 0.00 | 34 | 992.0 |
| 20260901000003 | 82 | 231 | 4.0 | 6.0 | 0.00 | 0.00 | 0.00 | 35 | 992.0 |
| 20260831235000 | 83 | 239 | 3.0 | 7.0 | 0.00 | 0.00 | 0.00 | 34 | 991.9 |
| 20260831234501 | 83 | 242 | 1.0 | 7.0 | 0.00 | 0.00 | 0.00 | 34 | 991.9 |